Location: Agadir Irigdalene
(31.2522°N, 8.7797°W)
Time: 16:28:59
(UTC+00:00)

Feng Yun 1-1 Rocket - Pass Details

Date: 01 December 2020
Orbit: 830 x 933 km, 99.2° (Epoch: 25 January)

Event Time Altitude Azimuth Distance (km) Brightness Sun altitude
Rises 18:26:53 0° 154° (SSE) 3,541 7.4 -11.7°
Reaches altitude 10° 18:29:22 10° 150° (SSE) 2,590 6.6 -12.2°
Maximum altitude 18:34:59 56° 73° (ENE) 1,054 4.4 -13.3°
Drops below altitude 10° 18:40:30 10° 357° (N) 2,537 6.5 -14.4°
Sets 18:42:54 0° 353° (N) 3,463 7.3 -14.9°
